Wind_Speed
7 8 8 9 10 10 9 8 8 9 9 10 10 10 10 10 10 9 9 10 10 10 10 10 10 10 11 10 10 9 10 10 10 10 10 10 9 9 8 7 7 6 6 6
9 8 9 10 10 10 10 9 9 10 10 11 11 11 11 11 11 11 10 10 10 10 10 10 10 10 10 10 10 10 11 11 11 10 10 10 10 10 9 8 8 7 7 7
9 9 9 10 10 10 10 10 10 11 11 11 11 12 11 12 12 11 11 11 11 11 11 11 10 11 11 11 11 11 11 11 11 10 10 10 10 10 10 8 8 8 8 7
10 10 10 10 11 11 11 11 11 12 12 12 11 12 11 11 12 12 12 12 11 12 12 11 11 11 11 11 11 11 11 12 12 11 11 11 11 10 10 9 9 8 8 8
11 11 11 11 11 12 12 13 13 13 13 12 11 12 11 11 12 12 12 11 11 12 12 11 11 11 11 11 12 12 12 12 12 12 12 12 12 11 11 10 10 9 9 9
12 12 12 12 13 13 14 14 14 14 14 13 12 13 12 11 12 12 12 12 11 12 12 11 11 11 11 11 12 12 12 12 12 12 12 12 12 11 11 11 11 10 10 10
13 13 13 13 14 14 14 14 15 14 14 14 13 14 13 12 13 13 13 12 12 12 12 12 12 11 11 11 11 11 12 12 12 12 12 11 11 11 11 12 11 11 11 10
15 14 14 14 14 14 14 15 15 15 15 14 14 14 13 13 13 13 13 13 14 14 13 13 13 12 12 12 11 11 12 12 11 11 11 11 11 12 12 12 12 11 11 11
15 15 15 15 14 15 15 15 15 15 15 15 15 14 13 13 13 13 14 14 14 14 14 14 13 13 13 13 13 13 13 13 11 11 11 11 12 12 11 11 12 12 11 11
16 15 15 15 15 15 16 16 16 16 16 16 15 14 13 14 14 14 14 14 15 15 15 14 14 14 13 14 14 13 13 13 13 12 12 12 12 12 11 11 12 12 12 11
17 17 16 16 16 16 17 17 17 17 18 18 17 15 14 14 15 15 15 15 15 14 15 15 15 15 15 15 15 14 14 13 13 13 12 12 12 12 12 12 12 12 12 11
18 18 18 17 16 17 17 18 19 19 19 19 19 17 16 16 16 15 15 15 15 15 15 16 16 16 15 15 15 15 15 14 14 14 13 13 12 13 13 12 12 13 13 13
19 19 19 19 19 18 19 19 19 20 20 19 19 17 16 16 16 16 16 16 16 16 16 16 16 16 16 15 15 15 15 15 15 14 14 14 14 14 14 13 13 14 15 15
21 21 21 20 20 19 20 19 19 20 21 20 19 18 17 17 17 17 17 17 16 16 16 16 16 16 16 16 16 15 15 15 15 15 15 15 15 15 15 15 14 15 15 15
23 22 21 21 21 21 21 21 21 22 22 22 20 19 18 19 19 19 18 18 18 17 17 16 17 17 16 16 16 16 15 15 15 15 16 16 16 16 15 15 15 16 16 15
23 23 22 22 22 22 23 23 23 23 23 22 21 21 20 20 20 19 19 19 19 18 18 17 17 17 16 16 16 16 16 16 16 16 17 17 17 17 17 16 17 17 17 17
22 22 23 22 22 23 24 23 23 23 22 22 22 20 20 21 20 20 20 20 19 19 19 18 17 17 17 16 17 17 17 17 17 17 18 18 18 18 19 18 18 18 19 19
23 23 23 23 23 24 22 22 22 23 23 23 22 21 21 20 21 21 21 20 20 20 19 19 19 18 18 18 18 18 18 18 18 19 19 19 19 19 20 20 19 19 20 20
24 24 24 24 24 24 22 21 22 22 22 23 23 22 21 21 22 21 21 21 21 20 19 19 19 19 19 19 19 19 19 19 19 19 20 20 20 19 19 18 19 20 20 20
25 25 25 25 25 24 22 21 21 23 23 22 23 23 22 22 22 21 21 22 22 21 20 20 20 20 20 20 20 20 20 19 19 19 19 20 19 19 20 20 20 20 20 20
25 25 26 26 26 25 23 22 23 24 23 23 24 24 24 24 23 22 23 23 23 22 21 21 21 21 21 21 21 21 20 20 20 20 20 21 21 21 21 21 21 20 20 20
26 26 26 27 27 25 25 24 24 24 25 24 24 25 25 25 24 23 23 23 22 22 22 22 21 21 22 22 22 22 22 21 21 22 22 22 22 21 22 22 22 22 21 21
28 27 27 27 27 27 26 26 25 25 25 25 24 25 25 25 24 24 24 24 24 24 23 23 23 22 22 23 23 23 23 22 23 23 23 23 23 23 22 23 23 23 22 22
29 29 28 28 27 27 27 27 27 26 26 26 26 26 26 26 26 25 25 25 25 25 25 24 24 24 24 24 24 23 23 23 23 23 23 23 23 23 23 23 23 24 23 23
28 29 29 28 27 28 28 28 28 28 28 28 27 28 27 27 27 27 26 26 26 26 26 25 25 25 25 25 24 24 24 24 23 23 23 23 24 23 24 24 24 24 24 24
28 28 29 29 29 29 29 30 30 29 28 28 28 27 27 26 27 27 26 26 26 26 25 25 25 25 25 25 25 25 25 25 25 24 24 23 23 23 23 23 24 24 24 24
Wind_Direction
250 251 248 244 242 243 248 250 251 255 257 255 252 247 245 244 245 246 249 251 251 252 254 254 255 255 254 257 258 259 257 256 256 259 259 262 269 276 280 281 282 289 291 285
251 253 249 244 245 245 250 251 253 255 258 258 255 250 247 248 250 252 252 254 256 254 254 256 256 255 253 255 254 255 253 258 262 264 263 262 267 274 276 274 275 279 284 279
250 255 252 247 247 248 251 253 252 254 256 259 259 253 249 250 253 254 256 257 258 256 255 254 256 256 255 256 254 256 256 259 263 264 264 264 267 270 268 267 273 277 277 273
247 254 256 254 254 255 255 253 255 255 256 257 258 255 249 252 255 258 259 261 262 260 257 254 257 260 260 257 256 257 259 258 260 263 265 265 265 264 264 265 270 276 275 273
247 251 255 256 256 257 257 256 258 259 259 259 259 262 255 255 259 262 262 262 262 260 257 256 258 259 258 256 255 257 259 258 260 262 266 266 263 261 263 264 266 270 269 271
248 251 254 256 259 262 259 258 261 262 262 262 263 263 259 255 260 261 261 260 259 258 256 255 257 259 260 259 258 256 259 261 262 263 266 267 263 261 262 263 265 266 267 270
250 253 255 258 261 263 259 260 264 267 266 266 264 263 263 258 258 259 260 260 259 259 256 254 255 257 259 260 261 258 261 263 265 266 265 263 262 260 262 263 264 264 266 270
252 253 256 258 260 262 261 263 264 269 271 268 265 263 263 262 262 259 258 260 261 260 259 256 254 254 256 258 261 263 262 263 264 265 262 261 261 261 262 263 263 265 267 268
255 255 255 257 255 257 260 263 266 269 270 268 265 267 264 265 263 262 261 261 262 260 259 256 254 255 256 258 262 266 266 262 262 264 263 263 259 260 262 261 261 264 266 267
255 256 255 256 257 260 261 263 264 267 269 269 267 268 269 265 263 263 265 263 262 259 256 252 254 257 259 259 261 263 266 265 263 264 264 263 259 258 260 260 260 261 261 261
257 258 258 256 258 262 262 262 262 265 269 272 272 270 270 268 263 263 262 261 258 255 252 252 255 258 260 259 260 261 263 267 267 266 266 263 261 257 257 260 262 262 260 261
258 258 257 258 259 261 262 262 264 266 269 271 271 271 271 269 265 263 261 257 253 251 252 253 255 258 259 259 258 261 262 265 266 267 267 265 264 259 258 261 262 263 264 265
256 258 259 257 258 261 264 266 266 267 267 267 268 269 270 269 265 263 261 258 255 251 252 253 256 258 258 258 259 262 263 263 266 268 267 265 264 262 261 262 264 264 264 265
257 257 259 261 263 265 266 266 266 266 266 266 267 268 268 265 263 261 259 257 256 255 253 253 254 257 259 260 262 263 262 263 265 266 266 265 263 262 263 264 265 264 263 264
257 258 259 261 263 264 265 265 264 265 265 265 266 264 263 260 258 258 257 255 255 255 257 255 253 254 257 259 262 262 261 263 264 265 265 266 265 264 263 264 264 264 263 264
257 258 260 261 262 263 264 264 262 263 264 265 266 264 262 260 258 256 255 254 254 254 256 258 257 255 257 260 264 266 265 263 262 265 267 267 266 265 263 263 264 264 265 266
256 259 262 262 263 263 264 265 264 264 264 264 265 266 263 260 258 257 255 254 254 253 254 256 257 256 258 260 263 267 268 267 264 264 265 266 265 264 265 265 264 265 266 267
255 259 263 265 264 264 267 266 266 266 264 264 263 263 262 260 257 256 255 254 254 254 256 258 259 259 258 260 263 267 269 266 264 263 264 264 263 263 264 265 265 265 266 267
256 259 264 267 267 267 266 265 265 265 264 263 262 262 262 262 259 257 255 256 256 256 256 257 258 260 261 262 263 265 268 269 267 264 265 265 264 263 264 266 267 267 267 268
257 260 262 265 266 266 267 265 264 264 263 263 262 262 263 263 260 258 256 255 255 253 254 257 258 260 261 263 263 265 267 268 268 267 266 265 265 264 266 266 268 269 269 268
256 259 262 264 265 266 268 268 266 264 266 265 263 262 263 262 260 258 256 255 254 252 252 255 257 258 260 262 262 263 265 266 267 268 267 267 268 266 266 266 267 268 268 268
256 260 261 263 265 266 267 267 266 267 266 266 265 263 262 261 259 257 256 255 254 254 254 255 256 257 259 260 261 263 265 265 266 267 268 268 268 269 268 267 266 266 267 268
257 259 261 263 265 267 266 266 267 267 266 266 265 262 261 259 258 257 255 255 254 255 255 256 256 257 259 261 262 264 264 264 265 266 267 267 268 269 268 268 267 265 266 267
259 260 261 263 266 266 266 265 266 268 267 267 265 263 262 260 258 257 255 254 254 255 255 256 257 258 260 262 263 263 262 263 264 265 266 266 266 267 269 267 267 265 265 267
261 262 262 263 265 266 267 267 268 268 268 268 267 264 261 258 257 257 255 254 255 254 255 255 257 259 260 262 262 262 262 261 262 264 265 266 267 269 269 269 267 266 266 266
261 262 263 264 265 265 268 268 267 267 268 268 268 267 261 258 257 255 254 255 255 255 256 256 257 258 259 260 261 262 262 262 262 263 264 265 267 268 268 267 266 266 266 266
Height
5846 5848 5848 5849 5849 5850 5851 5852 5853 5854 5854 5854 5855 5856 5857 5857 5857 5858 5859 5859 5859 5860 5860 5860 5861 5861 5861 5861 5861 5862 5862 5862 5862 5862 5862 5862 5862 5862 5862 5862 5861 5861 5860 5860
5845 5846 5846 5847 5847 5848 5849 5850 5851 5852 5852 5852 5853 5854 5855 5855 5856 5856 5857 5857 5857 5858 5858 5858 5858 5859 5859 5859 5859 5860 5860 5860 5860 5860 5860 5860 5860 5860 5860 5860 5860 5859 5859 5858
5843 5844 5844 5845 5846 5847 5848 5849 5849 5850 5850 5850 5851 5852 5853 5853 5853 5854 5855 5855 5855 5855 5856 5856 5856 5856 5856 5856 5857 5857 5857 5857 5857 5857 5857 5858 5858 5858 5858 5858 5858 5857 5857 5857
5841 5842 5842 5843 5844 5845 5846 5846 5847 5847 5847 5848 5849 5849 5851 5851 5851 5852 5853 5853 5853 5853 5853 5853 5853 5854 5854 5854 5854 5855 5855 5855 5855 5855 5855 5855 5855 5855 5856 5856 5856 5856 5855 5855
5839 5840 5840 5841 5842 5842 5843 5844 5844 5844 5845 5846 5846 5847 5849 5849 5849 5850 5850 5851 5851 5851 5851 5851 5851 5851 5851 5852 5852 5852 5852 5852 5853 5853 5853 5853 5853 5853 5853 5853 5853 5853 5853 5853
5837 5838 5838 5839 5839 5840 5840 5841 5841 5842 5842 5843 5844 5844 5846 5847 5847 5847 5848 5848 5848 5848 5848 5848 5848 5849 5849 5849 5849 5849 5850 5850 5850 5850 5850 5850 5850 5850 5851 5851 5851 5851 5851 5851
5834 5835 5836 5836 5837 5837 5838 5839 5839 5839 5839 5841 5841 5841 5843 5844 5844 5844 5844 5844 5845 5845 5845 5845 5846 5846 5846 5847 5847 5847 5847 5847 5847 5847 5847 5847 5848 5848 5848 5848 5848 5849 5849 5849
5831 5833 5833 5834 5834 5834 5835 5836 5837 5837 5837 5837 5838 5838 5840 5840 5840 5841 5841 5841 5841 5842 5842 5842 5843 5844 5844 5844 5844 5844 5844 5844 5844 5844 5844 5845 5845 5845 5845 5845 5846 5846 5846 5846
5828 5830 5830 5830 5831 5832 5832 5832 5833 5833 5833 5833 5834 5836 5837 5837 5837 5837 5838 5838 5838 5838 5839 5839 5840 5840 5841 5841 5841 5841 5841 5841 5841 5841 5841 5841 5842 5842 5842 5842 5843 5843 5843 5844
5824 5826 5827 5827 5828 5828 5829 5829 5829 5829 5829 5830 5831 5832 5834 5834 5834 5834 5834 5835 5835 5835 5835 5835 5836 5837 5837 5837 5838 5838 5838 5838 5838 5838 5838 5838 5839 5839 5839 5840 5840 5840 5840 5841
5820 5822 5823 5823 5824 5825 5825 5826 5825 5826 5826 5826 5827 5831 5830 5830 5830 5830 5830 5831 5831 5831 5832 5832 5832 5833 5833 5834 5834 5834 5835 5834 5835 5835 5835 5836 5836 5836 5836 5837 5837 5837 5838 5838
5816 5817 5818 5819 5820 5820 5820 5821 5821 5822 5822 5822 5823 5827 5825 5826 5826 5826 5827 5827 5827 5828 5828 5828 5829 5829 5830 5830 5831 5831 5831 5831 5831 5831 5832 5832 5832 5833 5833 5833 5834 5834 5834 5834
5811 5812 5813 5814 5816 5816 5815 5816 5816 5816 5816 5817 5818 5822 5821 5821 5821 5822 5822 5823 5823 5824 5824 5824 5825 5825 5826 5826 5827 5827 5827 5827 5828 5828 5828 5828 5829 5829 5829 5830 5830 5830 5830 5831
5805 5806 5808 5809 5809 5810 5810 5811 5811 5811 5811 5811 5813 5814 5815 5815 5816 5816 5817 5818 5818 5819 5820 5820 5821 5821 5822 5822 5822 5823 5823 5823 5823 5824 5824 5824 5824 5825 5825 5826 5826 5826 5826 5827
5799 5800 5801 5802 5803 5803 5804 5805 5805 5805 5805 5806 5807 5808 5809 5809 5810 5811 5811 5812 5813 5814 5815 5816 5816 5816 5817 5817 5818 5818 5818 5819 5819 5820 5820 5820 5820 5821 5821 5821 5821 5822 5822 5822
5793 5794 5795 5796 5796 5797 5797 5798 5798 5799 5799 5800 5800 5802 5803 5803 5804 5805 5806 5807 5808 5809 5810 5810 5811 5811 5812 5813 5813 5814 5814 5814 5814 5815 5815 5815 5815 5816 5816 5816 5817 5817 5817 5817
5787 5788 5789 5790 5790 5790 5791 5792 5792 5793 5793 5794 5794 5797 5796 5797 5798 5799 5800 5801 5802 5803 5804 5805 5806 5806 5807 5808 5808 5809 5809 5809 5809 5810 5810 5810 5811 5811 5811 5812 5812 5812 5812 5812
5781 5781 5782 5783 5784 5784 5788 5787 5786 5786 5787 5787 5788 5789 5789 5790 5791 5792 5794 5795 5796 5797 5798 5799 5800 5801 5801 5802 5802 5803 5803 5804 5804 5804 5804 5805 5805 5805 5806 5806 5806 5806 5806 5806
5775 5775 5776 5776 5776 5777 5780 5780 5780 5780 5780 5781 5782 5782 5783 5784 5784 5786 5787 5788 5790 5791 5792 5793 5794 5795 5796 5796 5796 5797 5798 5798 5798 5798 5799 5799 5799 5799 5800 5800 5800 5800 5800 5800
5768 5769 5770 5770 5770 5771 5775 5774 5773 5774 5774 5775 5775 5776 5777 5777 5779 5781 5781 5782 5783 5784 5786 5787 5788 5789 5790 5790 5790 5791 5791 5792 5792 5792 5793 5793 5793 5793 5794 5794 5794 5794 5794 5794
5762 5762 5763 5763 5763 5764 5767 5767 5767 5768 5769 5769 5768 5769 5770 5770 5772 5774 5774 5775 5776 5778 5779 5780 5781 5782 5783 5784 5784 5785 5785 5785 5786 5786 5787 5787 5787 5787 5787 5787 5787 5787 5788 5788
5755 5755 5756 5756 5756 5760 5760 5760 5761 5761 5761 5761 5761 5762 5763 5764 5764 5765 5767 5768 5770 5771 5772 5773 5774 5775 5776 5777 5778 5778 5778 5779 5779 5780 5780 5780 5780 5780 5780 5780 5781 5781 5781 5781
5747 5749 5749 5750 5752 5752 5752 5752 5752 5753 5753 5754 5754 5755 5756 5756 5757 5758 5760 5761 5763 5764 5765 5766 5767 5769 5769 5770 5771 5771 5772 5772 5772 5773 5773 5773 5774 5774 5773 5773 5774 5774 5774 5774
5739 5740 5741 5741 5743 5743 5744 5744 5744 5745 5745 5746 5746 5747 5748 5748 5749 5751 5752 5754 5755 5757 5758 5759 5760 5761 5762 5763 5764 5764 5764 5765 5765 5766 5766 5766 5767 5767 5766 5766 5766 5767 5767 5767
5732 5732 5732 5733 5735 5735 5736 5736 5736 5737 5737 5738 5738 5739 5739 5740 5742 5743 5744 5746 5747 5749 5750 5751 5752 5754 5754 5755 5756 5756 5757 5757 5758 5759 5759 5759 5759 5759 5759 5759 5759 5760 5760 5760
5723 5724 5724 5725 5727 5727 5728 5727 5727 5728 5728 5729 5730 5730 5731 5732 5733 5735 5736 5737 5739 5740 5742 5743 5744 5746 5746 5747 5748 5749 5749 5750 5750 5751 5751 5751 5752 5752 5752 5752 5753 5752 5753 5753